User: anonymous   Login
Location: Vancouver
(49.2500°N, 123.1330°W)
Time: 18:40:04
(UTC-07:00)
Language:

H-2A R/B - Orbit

View from above orbital plane
View from above orbital plane
View from above satellite
View from above satellite

Ground track
Ground track

The orbit data is extracted from the following two-line orbital elements,

1 27601U 02056E   17289.80417466  .00000056  00000-0  35937-4 0  9994
2 27601  98.3640 353.3210 0071025 295.1800 202.7580 14.31802772775216
Epoch (UTC): 16 October 2017 19:18:00
Eccentricity: 0.0071025
inclination: 98.3640°
perigee height: 735 km
apogee height: 836 km
right ascension of ascending node: 353.3210°
argument of perigee: 295.1800°
revolutions per day: 14.31802772
mean anomaly at epoch: 202.7580°
orbit number at epoch: 77521

The dashed part of the orbit path shows where the satellite is in the earth's shadow,  

DLR